Location: ROBOsky.com Wild Flower Ridge Observatory
(43.9736°N, 79.9739°W)
Time: 12:28:27
(UTC-04:00)

USA 129 - Visible Passes

Search period start: 30 May 2015 00:00
Search period end: 09 June 2015 00:00
Orbit: 241 x 674 km, 97.5° (Epoch: 24 April)

Date Brightness Start Highest point End Pass type
(mag) Time Alt. Az. Time Alt. Az. Time Alt. Az.
30 May 5.1 00:46:35 17° NW 00:46:35 17° NW 00:47:27 10° NW visible
30 May 5.1 23:23:53 12° NE 23:23:53 12° NE 23:24:27 10° NE visible
31 May 5.3 00:54:22 14° NW 00:54:22 14° NW 00:54:59 10° NW visible
31 May 4.9 23:31:32 14° NE 23:31:32 14° NE 23:32:27 10° NNE visible
01 Jun 5.4 01:02:01 12° NW 01:02:01 12° NW 01:02:19 10° NW visible
01 Jun 4.7 23:39:04 16° NE 23:39:04 16° NE 23:40:11 10° NNE visible
02 Jun 4.6 23:46:29 18° NE 23:46:29 18° NE 23:47:42 10° NNE visible
03 Jun 4.5 23:53:45 21° NE 23:53:45 21° NE 23:55:03 10° N visible
05 Jun 4.4 00:00:55 23° NNE 00:00:55 23° NNE 00:02:12 10° N visible
06 Jun 4.4 00:07:56 25° NNE 00:07:56 25° NNE 00:09:13 10° N visible
07 Jun 4.4 00:14:50 25° N 00:14:50 25° N 00:16:05 10° N visible
08 Jun 4.5 00:21:36 25° N 00:21:36 25° N 00:22:47 10° N visible
